Tracking 25703 objects as of 2-Jul-2022
HD Live streaming from Space Station
objects crossing your sky now

OBJECT K

Track OBJECT K now!
10-day predictions


NORAD ID: 49404
Int'l Code: 2021-102K
Perigee: 541.2 km
Apogee: 578.9 km
Inclination: 97.5 °
Period: 95.7 minutes
Semi major axis: 6931 km
RCS: Unknown
Launch date: November 9, 2021
Source: Japan (JPN)
Launch site: KAGOSHIMA SPACE CENTER UNIVERSITY OF TOKYO (KSCUT)

Note: This is a ROCKET BODY
aabbcc
Your satellite tracking list
Your tracking list is empty




NASA's NSSDC Master Catalog

Two Line Element Set (TLE):
1 49404U 21102K   22183.11500879  .00001542  00000-0  11347-3 0  9995
2 49404  97.5334 242.1209 0027173 167.7344 192.4550 15.04550839 35336
Source of the keplerian elements: AFSPC